.
WxDataArchive / Data Records for 2010-12-21
2010-12-20 December 2010 2010-12-22

Data Records for Tuesday, 21 December 2010

Time	Temp	Chill	HIndex	Humid	Dewpt	 Wind 	HiWind	WindDir	Rain 	Barom 
-----	----	-----	------	-----	-----	------	------	-------	-----	----- 
00:00	22.7	22.7	22.7	81	17.8	1	3	135	0.00	30.194 
00:05	22.7	22.7	22.7	81	17.8	1	3	68	0.00	30.194 
00:10	22.7	22.7	22.7	81	17.8	1	4	68	0.00	30.194 
00:15	22.7	22.7	22.7	81	17.8	1	3	90	0.00	30.191 
00:20	22.7	22.7	22.7	81	17.8	1	3	90	0.00	30.191 
00:25	22.7	22.7	22.7	81	17.8	1	2	90	0.00	30.191 
00:30	22.7	22.7	22.7	81	17.8	1	3	90	0.00	30.208 
00:35	22.7	22.7	22.7	81	17.8	1	4	90	0.00	30.208 
00:40	22.7	22.7	22.7	81	17.8	1	3	90	0.00	30.208 
00:45	22.7	22.7	22.7	81	17.8	1	3	90	0.00	30.191 
00:50	22.7	22.7	22.7	81	17.8	0	2	90	0.00	30.191 
00:55	22.7	22.7	22.7	81	17.8	0	2	90	0.00	30.191 
01:00	22.7	22.7	22.7	81	17.8	1	2	90	0.00	30.182 
01:05	22.7	22.7	22.7	82	18.0	0	2	90	0.00	30.182 
01:10	22.7	22.7	22.7	82	18.0	1	3	90	0.00	30.182 
01:15	22.7	22.7	22.7	82	18.0	1	3	90	0.00	30.175 
01:20	22.7	22.7	22.7	82	18.0	2	4	90	0.00	30.175 
01:25	22.7	22.7	22.7	83	18.3	2	5	90	0.00	30.175 
01:30	22.5	22.5	22.5	83	18.1	2	4	68	0.00	30.163 
01:35	22.5	22.5	22.5	83	18.1	2	4	112	0.00	30.163 
01:40	22.5	22.5	22.5	84	18.4	1	4	68	0.00	30.163 
01:45	22.5	22.5	22.5	84	18.4	1	5	90	0.00	30.162 
01:50	22.5	22.5	22.5	84	18.4	1	4	90	0.00	30.162 
01:55	22.5	22.5	22.5	84	18.4	1	4	90	0.00	30.162 
02:00	22.5	22.5	22.5	84	18.4	1	3	90	0.00	30.167 
02:05	22.5	22.5	22.5	84	18.4	1	2	90	0.00	30.167 
02:10	22.5	22.5	22.5	84	18.4	1	4	90	0.00	30.167 
02:15	22.5	22.5	22.5	84	18.4	1	4	90	0.00	30.162 
02:20	22.5	22.5	22.5	84	18.4	2	4	90	0.00	30.162 
02:25	22.5	22.5	22.5	84	18.4	1	4	90	0.00	30.162 
02:30	22.5	22.5	22.5	84	18.4	1	4	90	0.00	30.152 
02:35	22.5	22.5	22.5	84	18.4	1	3	90	0.00	30.152 
02:40	22.5	22.5	22.5	84	18.4	2	5	112	0.00	30.152 
02:45	22.5	22.5	22.5	84	18.4	2	4	112	0.00	30.153 
02:50	22.5	22.5	22.5	84	18.4	2	5	90	0.00	30.153 
02:55	22.5	22.5	22.5	84	18.4	2	4	90	0.00	30.153 
03:00	22.7	22.7	22.7	84	18.6	2	5	90	0.00	30.150 
03:05	22.7	22.7	22.7	84	18.6	1	4	112	0.00	30.150 
03:10	22.7	22.7	22.7	84	18.6	1	3	90	0.00	30.150 
03:15	22.7	22.7	22.7	84	18.6	1	4	90	0.00	30.149 
03:20	22.7	22.7	22.7	84	18.6	1	4	90	0.00	30.149 
03:25	22.7	22.7	22.7	84	18.6	2	6	90	0.00	30.149 
03:30	22.7	22.7	22.7	84	18.6	2	6	90	0.00	30.149 
03:35	22.7	22.7	22.7	84	18.6	2	6	90	0.00	30.149 
03:40	22.9	22.9	22.9	84	18.8	1	3	90	0.00	30.149 
03:45	22.9	22.9	22.9	84	18.8	1	4	90	0.00	30.145 
03:50	22.9	22.9	22.9	84	18.8	1	3	90	0.00	30.145 
03:55	22.9	22.9	22.9	84	18.8	1	5	90	0.00	30.145 
04:00	23.0	23.0	23.0	84	18.9	1	3	90	0.00	30.138 
04:05	23.0	23.0	23.0	84	18.9	1	3	90	0.00	30.138 
04:10	23.0	23.0	23.0	84	18.9	2	4	112	0.00	30.138 
04:15	23.0	23.0	23.0	84	18.9	1	5	90	0.00	30.136 
04:20	23.2	23.2	23.2	84	19.1	1	4	90	0.00	30.136 
04:25	23.2	23.2	23.2	84	19.1	1	3	112	0.00	30.136 
04:30	23.2	23.2	23.2	84	19.1	1	3	112	0.00	30.132 
04:35	23.2	23.2	23.2	84	19.1	2	5	90	0.00	30.132 
04:40	23.2	23.2	23.2	84	19.1	1	3	68	0.00	30.132 
04:45	23.2	23.2	23.2	83	18.8	2	4	90	0.00	30.139 
04:50	23.3	23.3	23.3	83	18.9	1	4	90	0.00	30.139 
04:55	23.3	23.3	23.3	83	18.9	1	4	112	0.00	30.139 
05:00	23.3	23.3	23.3	83	18.9	1	4	90	0.00	30.135 
05:05	23.5	23.5	23.5	83	19.1	2	6	68	0.00	30.135 
05:10	23.5	23.5	23.5	84	19.4	1	5	90	0.00	30.135 
05:15	23.5	23.5	23.5	84	19.4	2	6	90	0.00	30.144 
05:20	23.5	23.5	23.5	84	19.4	2	4	90	0.00	30.144 
05:25	23.5	23.5	23.5	84	19.4	1	5	90	0.00	30.144 
05:30	23.5	23.5	23.5	84	19.4	1	5	90	0.00	30.146 
05:35	23.5	23.5	23.5	84	19.4	2	4	90	0.00	30.146 
05:40	23.5	23.5	23.5	84	19.4	2	6	90	0.00	30.146 
05:45	23.5	23.5	23.5	84	19.4	2	5	90	0.00	30.139 
05:50	23.5	23.5	23.5	84	19.4	2	5	90	0.00	30.139 
05:55	23.5	23.5	23.5	84	19.4	2	6	90	0.00	30.139 
06:00	23.5	23.5	23.5	85	19.7	3	5	90	0.00	30.129 
06:05	23.5	23.5	23.5	85	19.7	2	5	90	0.00	30.129 
06:10	23.6	23.6	23.6	85	19.8	2	6	90	0.00	30.129 
06:15	23.6	23.6	23.6	85	19.8	2	5	90	0.00	30.137 
06:20	23.6	23.6	23.6	85	19.8	2	4	90	0.00	30.137 
06:25	23.6	23.6	23.6	85	19.8	2	7	90	0.00	30.137 
06:30	23.6	23.6	23.6	85	19.8	2	5	90	0.00	30.136 
06:35	23.6	23.6	23.6	85	19.8	2	6	90	0.00	30.136 
06:40	23.6	23.6	23.6	85	19.8	2	5	90	0.00	30.136 
06:45	23.6	23.6	23.6	85	19.8	2	5	90	0.00	30.138 
06:50	23.6	23.6	23.6	85	19.8	2	7	90	0.00	30.138 
06:55	23.6	23.6	23.6	85	19.8	3	6	90	0.00	30.138 
07:00	23.6	23.6	23.6	85	19.8	3	5	112	0.00	30.136 
07:05	23.6	23.6	23.6	85	19.8	2	5	90	0.00	30.136 
07:10	23.6	23.6	23.6	85	19.8	2	5	90	0.00	30.136 
07:15	23.6	23.6	23.6	86	20.0	2	5	90	0.00	30.144 
07:20	23.8	23.8	23.8	86	20.2	2	6	90	0.00	30.144 
07:25	23.8	23.8	23.8	86	20.2	3	6	90	0.00	30.144 
07:30	23.8	23.8	23.8	86	20.2	3	6	90	0.00	30.136 
07:35	23.8	23.8	23.8	86	20.2	2	4	90	0.00	30.136 
07:40	23.8	23.8	23.8	86	20.2	3	6	90	0.00	30.136 
07:45	23.8	23.8	23.8	86	20.2	2	5	90	0.00	30.136 
07:50	23.8	23.8	23.8	86	20.2	3	7	135	0.00	30.136 
07:55	23.8	23.8	23.8	86	20.2	2	4	90	0.00	30.136 
08:00	23.8	23.8	23.8	86	20.2	2	6	90	0.00	30.137 
08:05	23.8	23.8	23.8	87	20.5	2	5	90	0.00	30.137 
08:10	23.9	23.9	23.9	87	20.6	2	6	90	0.00	30.137 
08:15	23.9	23.9	23.9	87	20.6	2	4	90	0.00	30.151 
08:20	24.1	24.1	24.1	87	20.8	2	6	90	0.00	30.151 
08:25	24.1	24.1	24.1	87	20.8	2	7	90	0.00	30.151 
08:30	24.1	24.1	24.1	87	20.8	2	5	90	0.00	30.149 
08:35	24.1	24.1	24.1	87	20.8	3	7	90	0.00	30.149 
08:40	24.1	24.1	24.1	87	20.8	3	6	90	0.00	30.149 
08:45	24.1	24.1	24.1	87	20.8	2	5	90	0.00	30.151 
08:50	24.2	24.2	24.2	87	20.9	1	4	68	0.00	30.151 
08:55	24.2	24.2	24.2	87	20.9	2	5	90	0.00	30.151 
09:00	24.2	24.2	24.2	87	20.9	2	6	90	0.00	30.163 
09:05	24.4	24.4	24.4	87	21.1	1	3	90	0.00	30.163 
09:10	24.4	24.4	24.4	87	21.1	2	5	90	0.00	30.163 
09:15	24.5	24.5	24.5	87	21.2	2	5	90	0.00	30.168 
09:20	24.5	24.5	24.5	87	21.2	3	7	90	0.00	30.168 
09:25	24.5	24.5	24.5	87	21.2	3	9	90	0.00	30.168 
09:30	24.7	24.7	24.7	88	21.7	2	5	112	0.00	30.165 
09:35	24.7	24.7	24.7	88	21.7	2	5	90	0.00	30.165 
09:40	24.7	24.7	24.7	88	21.7	3	7	90	0.00	30.165 
09:45	24.7	24.7	24.7	88	21.7	3	7	90	0.00	30.147 
09:50	24.8	24.8	24.8	88	21.8	3	6	112	0.00	30.147 
09:55	25.0	25.0	25.0	88	22.0	3	5	90	0.00	30.147 
10:00	25.0	25.0	25.0	88	22.0	3	5	68	0.00	30.162 
10:05	25.1	25.1	25.1	88	22.1	2	5	90	0.00	30.162 
10:10	25.1	25.1	25.1	88	22.1	3	6	90	0.00	30.162 
10:15	25.1	25.1	25.1	88	22.1	3	8	90	0.00	30.152 
10:20	25.1	20.1	25.1	88	22.1	4	10	90	0.00	30.152 
10:25	25.3	25.3	25.3	88	22.3	3	6	112	0.00	30.152 
10:30	25.4	25.4	25.4	88	22.4	3	7	90	0.00	30.160 
10:35	25.4	25.4	25.4	88	22.4	2	5	90	0.00	30.160 
10:40	25.7	25.7	25.7	88	22.6	2	5	90	0.00	30.160 
10:45	25.7	25.7	25.7	87	22.4	3	6	90	0.00	30.151 
10:50	25.8	25.8	25.8	87	22.5	2	4	112	0.00	30.151 
10:55	25.8	20.9	25.8	87	22.5	4	7	90	0.00	30.151 
11:00	26.0	21.1	26.0	87	22.7	4	7	90	0.00	30.145 
11:05	26.0	26.0	26.0	87	22.7	3	6	90	0.00	30.145 
11:10	26.3	26.3	26.3	87	23.0	3	7	90	0.00	30.145 
11:15	26.4	26.4	26.4	86	22.8	3	7	90	0.00	30.131 
11:20	26.6	21.8	26.6	86	23.0	4	9	90	0.00	30.131 
11:25	26.7	26.7	26.7	86	23.1	3	6	112	0.00	30.131 
11:30	26.9	26.9	26.9	86	23.3	3	5	90	0.00	30.117 
11:35	27.2	22.5	27.2	86	23.6	4	7	112	0.00	30.117 
11:40	27.2	27.2	27.2	85	23.3	3	10	90	0.00	30.117 
11:45	27.3	27.3	27.3	85	23.4	3	7	90	0.00	30.114 
11:50	27.5	27.5	27.5	85	23.6	3	6	90	0.00	30.114 
11:55	27.6	23.0	27.6	85	23.7	4	7	90	0.00	30.114 
12:00	27.6	23.0	27.6	85	23.7	4	10	90	0.00	30.111 
12:05	27.6	23.0	27.6	85	23.7	4	9	112	0.00	30.111 
12:10	27.6	23.0	27.6	85	23.7	4	9	90	0.00	30.111 
12:15	27.6	23.0	27.6	85	23.7	4	10	112	0.00	30.098 
12:20	27.8	23.2	27.8	85	23.9	4	11	90	0.00	30.098 
12:25	27.8	23.2	27.8	85	23.9	4	11	90	0.00	30.098 
12:30	27.9	27.9	27.9	85	24.0	3	7	90	0.00	30.092 
12:35	27.9	22.3	27.9	84	23.7	5	11	90	0.00	30.092 
12:40	27.9	23.3	27.9	84	23.7	4	9	112	0.00	30.092 
12:45	27.9	23.3	27.9	84	23.7	4	8	90	0.00	30.091 
12:50	27.9	23.3	27.9	84	23.7	4	9	90	0.00	30.091 
12:55	27.9	27.9	27.9	84	23.7	3	9	90	0.00	30.091 
13:00	27.9	27.9	27.9	84	23.7	3	8	90	0.00	30.092 
13:05	28.1	23.6	28.1	84	23.9	4	7	90	0.00	30.092 
13:10	28.1	28.1	28.1	84	23.9	3	9	90	0.00	30.092 
13:15	28.1	28.1	28.1	84	23.9	3	7	112	0.00	30.098 
13:20	28.1	28.1	28.1	84	23.9	3	7	112	0.00	30.098 
13:25	28.2	28.2	28.2	84	24.0	3	7	90	0.00	30.098 
13:30	28.2	28.2	28.2	84	24.0	3	7	90	0.00	30.085 
13:35	28.2	28.2	28.2	84	24.0	3	6	90	0.00	30.085 
13:40	28.2	28.2	28.2	84	24.0	3	7	90	0.00	30.085 
13:45	28.2	23.7	28.2	84	24.0	4	7	90	0.00	30.084 
13:50	28.4	23.9	28.4	84	24.2	4	7	90	0.00	30.084 
13:55	28.4	23.9	28.4	83	23.9	4	9	90	0.00	30.084 
14:00	28.4	28.4	28.4	83	23.9	3	6	112	0.00	30.082 
14:05	28.5	28.5	28.5	83	24.0	3	6	90	0.00	30.082 
14:10	28.5	28.5	28.5	83	24.0	3	6	90	0.00	30.082 
14:15	28.5	28.5	28.5	82	23.7	3	7	90	0.00	30.083 
14:20	28.7	28.7	28.7	83	24.2	2	4	90	0.00	30.083 
14:25	28.7	28.7	28.7	82	23.9	3	7	90	0.00	30.083 
14:30	28.7	28.7	28.7	82	23.9	3	7	112	0.00	30.085 
14:35	28.7	28.7	28.7	82	23.9	3	6	112	0.00	30.085 
14:40	28.7	28.7	28.7	81	23.6	3	9	90	0.00	30.085 
14:45	28.7	24.3	28.7	81	23.6	4	7	90	0.00	30.080 
14:50	28.7	24.3	28.7	81	23.6	4	9	90	0.00	30.080 
14:55	28.7	28.7	28.7	81	23.6	3	6	90	0.00	30.080 
15:00	28.8	28.8	28.8	81	23.7	2	5	68	0.00	30.081 
15:05	28.8	28.8	28.8	81	23.7	2	5	112	0.00	30.081 
15:10	28.8	28.8	28.8	81	23.7	3	6	90	0.00	30.081 
15:15	28.8	28.8	28.8	81	23.7	3	5	90	0.00	30.080 
15:20	28.8	28.8	28.8	81	23.7	2	7	112	0.00	30.080 
15:25	28.8	28.8	28.8	81	23.7	3	6	112	0.00	30.080 
15:30	28.7	28.7	28.7	81	23.6	3	9	90	0.00	30.068 
15:35	28.7	24.3	28.7	81	23.6	4	9	90	0.00	30.068 
15:40	28.7	24.3	28.7	81	23.6	4	9	90	0.00	30.068 
15:45	28.7	28.7	28.7	81	23.6	3	7	90	0.00	30.060 
15:50	28.7	28.7	28.7	81	23.6	3	6	90	0.00	30.060 
15:55	28.7	28.7	28.7	81	23.6	3	7	90	0.00	30.060 
16:00	28.7	28.7	28.7	81	23.6	3	6	90	0.00	30.068 
16:05	28.8	28.8	28.8	81	23.7	3	5	90	0.00	30.068 
16:10	28.8	24.4	28.8	81	23.7	4	9	90	0.00	30.068 
16:15	28.8	24.4	28.8	81	23.7	4	8	90	0.00	30.067 
16:20	28.8	28.8	28.8	81	23.7	3	8	90	0.00	30.067 
16:25	28.8	28.8	28.8	80	23.4	3	6	90	0.00	30.067 
16:30	28.8	28.8	28.8	80	23.4	3	7	90	0.00	30.068 
16:35	28.8	28.8	28.8	80	23.4	2	5	68	0.00	30.068 
16:40	28.8	28.8	28.8	80	23.4	3	5	90	0.00	30.068 
16:45	28.8	28.8	28.8	80	23.4	3	7	90	0.00	30.068 
16:50	28.8	28.8	28.8	80	23.4	3	9	90	0.00	30.068 
16:55	28.8	28.8	28.8	80	23.4	3	7	90	0.00	30.068 
17:00	28.8	28.8	28.8	80	23.4	3	6	90	0.00	30.075 
17:05	28.8	28.8	28.8	80	23.4	2	4	90	0.00	30.075 
17:10	28.8	28.8	28.8	80	23.4	3	6	90	0.00	30.075 
17:15	28.8	28.8	28.8	80	23.4	2	4	112	0.00	30.081 
17:20	28.8	28.8	28.8	80	23.4	2	5	90	0.00	30.081 
17:25	28.8	28.8	28.8	80	23.4	1	4	90	0.00	30.081 
17:30	28.8	28.8	28.8	80	23.4	2	5	112	0.00	30.078 
17:35	28.8	28.8	28.8	80	23.4	2	5	90	0.00	30.078 
17:40	28.8	28.8	28.8	81	23.7	2	5	90	0.00	30.078 
17:45	28.8	28.8	28.8	81	23.7	2	4	90	0.00	30.076 
17:50	28.8	28.8	28.8	81	23.7	1	5	90	0.00	30.076 
17:55	28.8	28.8	28.8	81	23.7	2	5	68	0.00	30.076 
18:00	28.8	28.8	28.8	81	23.7	2	4	112	0.00	30.086 
18:05	28.8	28.8	28.8	81	23.7	2	4	112	0.00	30.086 
18:10	29.0	29.0	29.0	81	23.9	2	4	90	0.00	30.086 
18:15	29.0	29.0	29.0	81	23.9	1	3	90	0.00	30.083 
18:20	29.0	29.0	29.0	81	23.9	2	5	90	0.00	30.083 
18:25	29.0	29.0	29.0	81	23.9	3	6	90	0.00	30.083 
18:30	29.0	24.6	29.0	80	23.6	4	6	90	0.00	30.074 
18:35	29.0	29.0	29.0	80	23.6	3	7	90	0.00	30.074 
18:40	28.8	28.8	28.8	81	23.7	3	6	90	0.00	30.074 
18:45	28.8	28.8	28.8	81	23.7	2	6	90	0.00	30.077 
18:50	28.8	28.8	28.8	84	24.6	2	4	90	0.00	30.077 
18:55	29.0	29.0	29.0	81	23.9	1	5	90	0.00	30.077 
19:00	29.0	29.0	29.0	81	23.9	2	5	90	0.00	30.090 
19:05	29.0	29.0	29.0	80	23.6	2	5	112	0.00	30.090 
19:10	29.0	29.0	29.0	80	23.6	3	7	90	0.00	30.090 
19:15	29.0	29.0	29.0	80	23.6	2	4	112	0.00	30.081 
19:20	29.0	29.0	29.0	80	23.6	2	5	90	0.00	30.081 
19:25	29.0	29.0	29.0	80	23.6	2	6	68	0.00	30.081 
19:30	29.0	29.0	29.0	80	23.6	1	4	90	0.00	30.088 
19:35	29.0	29.0	29.0	80	23.6	2	5	90	0.00	30.088 
19:40	29.0	29.0	29.0	80	23.6	2	4	68	0.00	30.088 
19:45	29.0	29.0	29.0	80	23.6	2	5	68	0.00	30.085 
19:50	29.0	29.0	29.0	80	23.6	2	4	90	0.00	30.085 
19:55	29.0	29.0	29.0	80	23.6	2	5	90	0.00	30.085 
20:00	29.0	29.0	29.0	80	23.6	2	4	90	0.00	30.081 
20:05	29.0	29.0	29.0	80	23.6	2	4	90	0.00	30.081 
20:10	29.0	29.0	29.0	80	23.6	2	6	90	0.00	30.081 
20:15	29.0	29.0	29.0	80	23.6	3	6	90	0.00	30.081 
20:20	29.0	29.0	29.0	80	23.6	2	4	90	0.00	30.081 
20:25	29.0	29.0	29.0	80	23.6	2	4	90	0.00	30.081 
20:30	29.0	29.0	29.0	80	23.6	2	5	90	0.00	30.081 
20:35	29.0	29.0	29.0	80	23.6	2	6	90	0.00	30.081 
20:40	29.0	29.0	29.0	80	23.6	2	5	90	0.00	30.081 
20:45	29.0	29.0	29.0	80	23.6	2	6	90	0.00	30.078 
20:50	29.0	29.0	29.0	81	23.9	1	4	112	0.00	30.078 
20:55	29.0	29.0	29.0	81	23.9	2	6	90	0.00	30.078 
21:00	29.0	29.0	29.0	81	23.9	2	5	90	0.00	30.080 
21:05	28.8	28.8	28.8	81	23.7	2	4	90	0.00	30.080 
21:10	28.8	28.8	28.8	81	23.7	2	5	90	0.00	30.080 
21:15	28.8	28.8	28.8	81	23.7	2	4	90	0.00	30.069 
21:20	28.8	28.8	28.8	81	23.7	2	5	90	0.00	30.069 
21:25	28.8	28.8	28.8	82	24.0	1	3	90	0.00	30.069 
21:30	28.8	28.8	28.8	82	24.0	2	5	90	0.00	30.063 
21:35	28.8	28.8	28.8	82	24.0	3	6	68	0.00	30.063 
21:40	28.8	28.8	28.8	82	24.0	2	5	112	0.00	30.063 
21:45	28.8	28.8	28.8	82	24.0	3	6	90	0.00	30.058 
21:50	28.8	28.8	28.8	82	24.0	2	5	90	0.00	30.058 
21:55	28.8	28.8	28.8	83	24.3	2	6	90	0.00	30.058 
22:00	28.8	28.8	28.8	83	24.3	2	5	112	0.00	30.064 
22:05	28.8	28.8	28.8	83	24.3	2	5	90	0.00	30.064 
22:10	28.8	28.8	28.8	83	24.3	2	4	90	0.00	30.064 
22:15	28.8	28.8	28.8	83	24.3	1	4	68	0.00	30.065 
22:20	28.7	28.7	28.7	83	24.2	1	5	90	0.00	30.065 
22:25	28.7	28.7	28.7	83	24.2	1	3	90	0.00	30.065 
22:30	28.7	28.7	28.7	83	24.2	2	3	90	0.00	30.066 
22:35	28.7	28.7	28.7	83	24.2	1	5	68	0.00	30.066 
22:40	28.7	28.7	28.7	83	24.2	1	4	68	0.00	30.066 
22:45	28.7	28.7	28.7	83	24.2	2	4	90	0.00	30.062 
22:50	28.7	28.7	28.7	84	24.5	2	4	68	0.00	30.062 
22:55	28.7	28.7	28.7	84	24.5	1	4	68	0.00	30.062 
23:00	28.7	28.7	28.7	84	24.5	2	4	90	0.00	30.063 
23:05	28.7	28.7	28.7	84	24.5	1	4	90	0.00	30.063 
23:10	28.7	28.7	28.7	84	24.5	1	4	90	0.00	30.063 
23:15	28.5	28.5	28.5	84	24.3	1	4	90	0.00	30.065 
23:20	28.5	28.5	28.5	84	24.3	1	2	90	0.00	30.065 
23:25	28.5	28.5	28.5	84	24.3	0	2	90	0.00	30.065 
23:30	28.5	28.5	28.5	84	24.3	1	3	90	0.00	30.063 
23:35	28.5	28.5	28.5	84	24.3	1	4	90	0.00	30.063 
23:40	28.5	28.5	28.5	84	24.3	1	3	90	0.00	30.063 
23:45	28.5	28.5	28.5	84	24.3	1	3	90	0.00	30.062 
23:50	28.5	28.5	28.5	84	24.3	1	3	90	0.00	30.062 
23:55	28.5	28.5	28.5	84	24.3	1	3	90	0.00	30.062 

CoCoRaHS
IN-AL-39
A2 Web Hosting
Creative Commons License
GoDaddy
search engine by freefind advanced

loaded 2018-11-19 11:40:39 • last modified 2010-11-18 10:43:29
Privacy PolicyDisclaimer
• wx.awcolley.com is powered by PmWiki v.2002016 •
• all content (unless otherwise noted) © 2018 A W Colley